| time (UTC) | temp F | wind direction | speed knots | gust knots | rain 1hr in | rain 24hr in | rain mn in | humidity % | barometer mb |
| 20260901220440 | 89 | 207 | 0.0 | 0.0 | 0.00 | 0.00 | 0.00 | 70 | 1014.5 |
| 20260901214440 | 89 | 239 | 0.0 | 0.9 | 0.00 | 0.00 | 0.00 | 71 | 1014.7 |
| 20260901213440 | 90 | 256 | 0.0 | 0.0 | 0.00 | 0.00 | 0.00 | 70 | 1014.7 |
| 20260901212540 | 90 | 259 | 0.0 | 0.9 | 0.00 | 0.00 | 0.00 | 67 | 1014.7 |
| 20260901211440 | 91 | 224 | 0.0 | 1.7 | 0.00 | 0.00 | 0.00 | 65 | 1014.7 |
| 20260901210440 | 91 | 258 | 0.0 | 2.6 | 0.00 | 0.00 | 0.00 | 64 | 1014.7 |
| 20260901205440 | 91 | 259 | 0.0 | 1.7 | 0.00 | 0.00 | 0.00 | 66 | 1014.7 |
| 20260901204440 | 92 | 259 | 0.0 | 0.0 | 0.00 | 0.00 | 0.00 | 65 | 1014.8 |
| 20260901202440 | 91 | 242 | 0.0 | 0.9 | 0.00 | 0.00 | 0.00 | 68 | 1014.9 |
| 20260901201440 | 91 | 210 | 0.0 | 0.9 | 0.00 | 0.00 | 0.00 | 66 | 1015.0 |
| 20260901200510 | 89 | 261 | 0.0 | 0.0 | 0.00 | 0.00 | 0.00 | 70 | 1015.1 |
| 20260901195440 | 89 | 265 | 0.0 | 0.0 | 0.00 | 0.00 | 0.00 | 71 | 1015.2 |
| 20260901194440 | 92 | 265 | 0.0 | 1.7 | 0.00 | 0.00 | 0.00 | 65 | 1015.4 |
| 20260901192510 | 92 | 242 | 0.0 | 0.9 | 0.00 | 0.00 | 0.00 | 64 | 1015.4 |
| 20260901190440 | 91 | 229 | 0.0 | 2.6 | 0.00 | 0.00 | 0.00 | 68 | 1015.4 |
| 20260901185440 | 91 | 193 | 0.0 | 0.0 | 0.00 | 0.00 | 0.00 | 66 | 1015.5 |
| 20260901184440 | 90 | 240 | 0.0 | 0.9 | 0.00 | 0.00 | 0.00 | 67 | 1015.6 |
| 20260901183440 | 92 | 240 | 0.0 | 0.0 | 0.00 | 0.00 | 0.00 | 63 | 1015.6 |
| 20260901182440 | 92 | 193 | 1.7 | 1.7 | 0.00 | 0.00 | 0.00 | 68 | 1015.6 |
| 20260901180440 | 91 | 282 | 0.0 | 0.0 | 0.00 | 0.00 | 0.00 | 70 | 1015.7 |
| 20260901175440 | 90 | 282 | 0.0 | 0.0 | 0.00 | 0.00 | 0.00 | 69 | 1015.8 |
| 20260901174440 | 91 | 282 | 0.0 | 0.0 | 0.00 | 0.00 | 0.00 | 67 | 1015.8 |
| 20260901173440 | 91 | 282 | 0.0 | 0.0 | 0.00 | 0.00 | 0.00 | 66 | 1015.7 |
| 20260901172440 | 91 | 304 | 0.0 | 3.5 | 0.00 | 0.00 | 0.00 | 69 | 1015.6 |
| 20260901171440 | 91 | 246 | 0.0 | 1.7 | 0.00 | 0.00 | 0.00 | 68 | 1015.7 |
| 20260901170510 | 90 | 248 | 0.0 | 0.9 | 0.00 | 0.00 | 0.00 | 69 | 1015.8 |
| 20260901165440 | 90 | 248 | 0.0 | 2.6 | 0.00 | 0.00 | 0.00 | 68 | 1016.1 |
| 20260901164440 | 90 | 275 | 0.9 | 1.7 | 0.00 | 0.00 | 0.00 | 70 | 1016.2 |
| 20260901162440 | 89 | 281 | 0.0 | 1.7 | 0.00 | 0.00 | 0.00 | 75 | 1016.4 |
| 20260901161440 | 88 | 257 | 0.0 | 0.0 | 0.00 | 0.00 | 0.00 | 75 | 1016.6 |
| 20260901160440 | 89 | 257 | 0.0 | 0.9 | 0.00 | 0.00 | 0.00 | 73 | 1016.6 |
| 20260901155440 | 89 | 278 | 0.0 | 1.7 | 0.00 | 0.00 | 0.00 | 73 | 1016.5 |
| 20260901154440 | 90 | 279 | 0.0 | 0.9 | 0.00 | 0.00 | 0.00 | 71 | 1016.7 |
| 20260901152440 | 87 | 223 | 0.0 | 0.9 | 0.00 | 0.00 | 0.00 | 75 | 1016.7 |
| 20260901151440 | 87 | 229 | 0.9 | 2.6 | 0.00 | 0.00 | 0.00 | 74 | 1016.8 |
| 20260901150440 | 86 | 283 | 0.0 | 2.6 | 0.00 | 0.00 | 0.00 | 74 | 1016.9 |
| 20260901145440 | 86 | 232 | 0.0 | 1.7 | 0.00 | 0.00 | 0.00 | 77 | 1016.9 |
| 20260901144440 | 85 | 276 | 0.0 | 0.9 | 0.00 | 0.00 | 0.00 | 76 | 1017.1 |
| 20260901143440 | 86 | 299 | 0.9 | 1.7 | 0.00 | 0.00 | 0.00 | 77 | 1016.9 |
| 20260901142440 | 86 | 197 | 0.9 | 1.7 | 0.00 | 0.00 | 0.00 | 78 | 1016.9 |
| 20260901141440 | 85 | 290 | 0.0 | 1.7 | 0.00 | 0.00 | 0.00 | 79 | 1016.9 |
| 20260901140510 | 84 | 321 | 0.9 | 0.9 | 0.00 | 0.00 | 0.00 | 81 | 1017.0 |
| 20260901135440 | 82 | 233 | 0.0 | 0.0 | 0.00 | 0.00 | 0.00 | 84 | 1017.1 |
| 20260901134510 | 81 | 180 | 0.0 | 0.0 | 0.00 | 0.00 | 0.00 | 84 | 1017.1 |
| 20260901133440 | 81 | 178 | 0.0 | 2.6 | 0.00 | 0.00 | 0.00 | 85 | 1017.1 |
| 20260901132510 | 80 | 222 | 0.0 | 0.0 | 0.00 | 0.00 | 0.00 | 86 | 1017.2 |
| 20260901131440 | 80 | 222 | 0.0 | 0.0 | 0.00 | 0.00 | 0.00 | 86 | 1017.2 |
| 20260901130440 | 80 | 222 | 0.0 | 0.0 | 0.00 | 0.00 | 0.00 | 86 | 1017.3 |
| 20260901125441 | 80 | 222 | 0.0 | 0.0 | 0.00 | 0.00 | 0.00 | 86 | 1017.5 |
| 20260901124440 | 80 | 222 | 0.0 | 0.0 | 0.00 | 0.00 | 0.00 | 86 | 1017.5 |
| 20260901123440 | 80 | 223 | 0.9 | 1.7 | 0.00 | 0.00 | 0.00 | 86 | 1017.4 |
| 20260901122441 | 78 | 202 | 0.0 | 1.7 | 0.00 | 0.00 | 0.00 | 88 | 1017.5 |
| 20260901121441 | 78 | 246 | 0.0 | 0.0 | 0.00 | 0.00 | 0.00 | 89 | 1017.4 |
| 20260901120440 | 77 | 246 | 0.0 | 0.0 | 0.00 | 0.00 | 0.00 | 89 | 1017.4 |
| 20260901115441 | 76 | 253 | 0.0 | 0.0 | 0.00 | 0.00 | 0.00 | 90 | 1017.3 |
| 20260901114441 | 76 | 253 | 0.0 | 0.0 | 0.00 | 0.00 | 0.00 | 91 | 1017.3 |
| 20260901112441 | 75 | 195 | 0.0 | 0.0 | 0.00 | 0.00 | 0.00 | 92 | 1017.1 |
| 20260901111441 | 74 | 225 | 0.0 | 0.0 | 0.00 | 0.00 | 0.00 | 92 | 1017.0 |
| 20260901110441 | 74 | 225 | 0.0 | 0.0 | 0.00 | 0.00 | 0.00 | 92 | 1016.8 |
| 20260901105441 | 74 | 213 | 0.0 | 0.0 | 0.00 | 0.00 | 0.00 | 91 | 1016.7 |
| 20260901104441 | 74 | 17 | 0.0 | 0.0 | 0.00 | 0.00 | 0.00 | 91 | 1016.6 |
| 20260901103441 | 74 | 345 | 0.0 | 0.0 | 0.00 | 0.00 | 0.00 | 91 | 1016.7 |
| 20260901102441 | 74 | 13 | 0.0 | 0.0 | 0.00 | 0.00 | 0.00 | 91 | 1016.8 |
| 20260901101441 | 74 | 13 | 0.0 | 0.0 | 0.00 | 0.00 | 0.00 | 91 | 1016.9 |
| 20260901100441 | 74 | 13 | 0.0 | 0.0 | 0.00 | 0.00 | 0.00 | 91 | 1017.0 |
| 20260901095441 | 74 | 13 | 0.0 | 0.0 | 0.00 | 0.00 | 0.00 | 91 | 1016.9 |
| 20260901094440 | 74 | 13 | 0.0 | 0.0 | 0.00 | 0.00 | 0.00 | 91 | 1016.9 |
| 20260901092441 | 74 | 13 | 0.0 | 0.0 | 0.00 | 0.00 | 0.00 | 91 | 1016.8 |
| 20260901091441 | 75 | 13 | 0.0 | 0.0 | 0.00 | 0.00 | 0.00 | 91 | 1016.8 |
| 20260901090441 | 75 | 13 | 0.0 | 0.0 | 0.00 | 0.00 | 0.00 | 90 | 1016.7 |
| 20260901085441 | 75 | 13 | 0.0 | 0.0 | 0.00 | 0.00 | 0.00 | 90 | 1016.8 |
| 20260901084441 | 75 | 13 | 0.0 | 0.0 | 0.00 | 0.00 | 0.00 | 90 | 1016.7 |
| 20260901083441 | 75 | 13 | 0.0 | 0.0 | 0.00 | 0.00 | 0.00 | 90 | 1016.8 |
| 20260901082441 | 75 | 13 | 0.0 | 0.0 | 0.00 | 0.00 | 0.00 | 90 | 1016.8 |
| 20260901080441 | 75 | 13 | 0.0 | 0.0 | 0.00 | 0.00 | 0.00 | 90 | 1016.9 |
| 20260901075441 | 76 | 13 | 0.0 | 0.0 | 0.00 | 0.00 | 0.00 | 90 | 1016.9 |
| 20260901074441 | 76 | 13 | 0.0 | 0.0 | 0.00 | 0.00 | 0.00 | 90 | 1017.0 |
| 20260901073441 | 76 | 13 | 0.0 | 0.0 | 0.00 | 0.00 | 0.00 | 90 | 1017.0 |
| 20260901072441 | 76 | 13 | 0.0 | 0.0 | 0.00 | 0.00 | 0.00 | 90 | 1017.0 |
| 20260901071441 | 76 | 13 | 0.0 | 0.0 | 0.00 | 0.00 | 0.00 | 90 | 1017.1 |
| 20260901070441 | 76 | 13 | 0.0 | 0.0 | 0.00 | 0.00 | 0.00 | 90 | 1017.0 |
| 20260901065441 | 76 | 13 | 0.0 | 0.0 | 0.00 | 0.00 | 0.00 | 91 | 1017.1 |
| 20260901064441 | 76 | 13 | 0.0 | 0.0 | 0.00 | 0.00 | 0.00 | 91 | 1017.1 |
| 20260901063441 | 76 | 13 | 0.0 | 0.0 | 0.00 | 0.00 | 0.00 | 91 | 1017.2 |
| 20260901062441 | 76 | 13 | 0.0 | 0.0 | 0.00 | 0.00 | 0.00 | 91 | 1017.3 |
| 20260901060441 | 77 | 13 | 0.0 | 0.0 | 0.00 | 0.00 | 0.00 | 90 | 1017.3 |
| 20260901055441 | 77 | 13 | 0.0 | 0.0 | 0.00 | 0.00 | 0.00 | 90 | 1017.4 |
| 20260901054441 | 77 | 13 | 0.0 | 0.0 | 0.00 | 0.00 | 0.00 | 90 | 1017.6 |
| 20260901053441 | 77 | 13 | 0.0 | 0.0 | 0.00 | 0.00 | 0.00 | 90 | 1017.8 |
| 20260901052511 | 77 | 13 | 0.0 | 0.0 | 0.00 | 0.00 | 0.00 | 90 | 1017.8 |
| 20260901051441 | 77 | 13 | 0.0 | 0.0 | 0.00 | 0.00 | 0.00 | 91 | 1017.9 |
| 20260901050441 | 77 | 13 | 0.0 | 0.0 | 0.00 | 0.00 | 0.00 | 91 | 1017.8 |
| 20260901045441 | 77 | 13 | 0.0 | 0.0 | 0.00 | 0.00 | 0.00 | 91 | 1017.9 |
| 20260901044511 | 77 | 13 | 0.0 | 0.0 | 0.00 | 0.00 | 0.00 | 91 | 1017.9 |
| 20260901043441 | 77 | 13 | 0.0 | 0.0 | 0.00 | 0.00 | 0.00 | 91 | 1018.0 |
| 20260901042441 | 77 | 13 | 0.0 | 0.0 | 0.00 | 0.00 | 0.00 | 91 | 1018.0 |
| 20260901041441 | 77 | 13 | 0.0 | 0.0 | 0.00 | 0.00 | 0.00 | 91 | 1018.0 |
| 20260901040441 | 78 | 13 | 0.0 | 0.0 | 0.00 | 0.00 | 0.00 | 91 | 1018.0 |
| 20260901034441 | 77 | 13 | 0.0 | 0.0 | 0.00 | 0.00 | 0.00 | 91 | 1018.0 |
| 20260901033441 | 77 | 13 | 0.0 | 0.0 | 0.00 | 0.00 | 0.00 | 91 | 1017.9 |
| 20260901032441 | 77 | 13 | 0.0 | 0.0 | 0.00 | 0.00 | 0.00 | 91 | 1017.8 |
| 20260901030441 | 77 | 13 | 0.0 | 0.0 | 0.00 | 0.00 | 0.00 | 91 | 1017.8 |
| 20260901025441 | 78 | 13 | 0.0 | 0.0 | 0.00 | 0.00 | 0.00 | 91 | 1017.7 |
| 20260901024441 | 77 | 13 | 0.0 | 0.0 | 0.00 | 0.00 | 0.00 | 91 | 1017.7 |
| 20260901023441 | 78 | 13 | 0.0 | 0.0 | 0.00 | 0.00 | 0.00 | 91 | 1017.7 |
| 20260901022441 | 77 | 13 | 0.0 | 0.0 | 0.00 | 0.00 | 0.00 | 91 | 1017.8 |
| 20260901021441 | 78 | 13 | 0.0 | 0.0 | 0.00 | 0.00 | 0.00 | 91 | 1017.8 |
| 20260901020441 | 78 | 13 | 0.0 | 0.0 | 0.00 | 0.00 | 0.00 | 91 | 1017.8 |
| 20260901015441 | 78 | 13 | 0.0 | 0.0 | 0.00 | 0.00 | 0.00 | 91 | 1018.0 |
| 20260901014441 | 77 | 13 | 0.0 | 0.0 | 0.00 | 0.00 | 0.00 | 91 | 1018.0 |
| 20260901013441 | 77 | 13 | 0.0 | 0.0 | 0.00 | 0.00 | 0.00 | 91 | 1017.9 |
| 20260901012511 | 77 | 13 | 0.0 | 0.0 | 0.00 | 0.00 | 0.00 | 90 | 1017.9 |
| 20260901011441 | 78 | 13 | 0.0 | 0.0 | 0.00 | 0.00 | 0.00 | 90 | 1017.8 |
| 20260901010441 | 78 | 13 | 0.0 | 0.0 | 0.00 | 0.00 | 0.00 | 90 | 1017.8 |
| 20260901005441 | 78 | 13 | 0.0 | 0.0 | 0.00 | 0.00 | 0.00 | 90 | 1017.9 |
| 20260901004441 | 78 | 13 | 0.0 | 0.0 | 0.00 | 0.00 | 0.00 | 90 | 1017.9 |
| 20260901003441 | 78 | 13 | 0.0 | 0.0 | 0.00 | 0.00 | 0.00 | 90 | 1017.9 |
| 20260901002441 | 78 | 13 | 0.0 | 0.0 | 0.00 | 0.00 | 0.00 | 90 | 1017.9 |
| 20260901001441 | 78 | 13 | 0.0 | 0.0 | 0.00 | 0.00 | 0.00 | 89 | 1017.9 |
| 20260901000443 | 79 | 13 | 0.0 | 0.0 | 0.00 | 0.00 | 0.00 | 89 | 1017.8 |
| 20260831234441 | 80 | 13 | 0.0 | 0.0 | 0.00 | 0.00 | 0.00 | 88 | 1017.7 |
| 20260831233441 | 80 | 13 | 0.0 | 0.0 | 0.00 | 0.00 | 0.00 | 87 | 1017.8 |
| 20260831232441 | 80 | 13 | 0.0 | 0.0 | 0.00 | 0.00 | 0.00 | 87 | 1017.9 |
| 20260831231441 | 81 | 13 | 0.0 | 0.0 | 0.00 | 0.00 | 0.00 | 87 | 1017.8 |
| 20260831230441 | 81 | 13 | 0.0 | 0.0 | 0.00 | 0.00 | 0.00 | 86 | 1017.9 |
| 20260831225441 | 81 | 13 | 0.0 | 0.0 | 0.00 | 0.00 | 0.00 | 86 | 1017.7 |
| 20260831224441 | 81 | 13 | 0.0 | 0.0 | 0.00 | 0.00 | 0.00 | 86 | 1017.7 |
| 20260831223441 | 82 | 13 | 0.0 | 0.0 | 0.00 | 0.00 | 0.00 | 86 | 1017.9 |
| 20260831222511 | 82 | 13 | 0.0 | 0.0 | 0.00 | 0.00 | 0.00 | 86 | 1018.0 |
| 20260831221441 | 82 | 13 | 0.0 | 0.0 | 0.00 | 0.00 | 0.00 | 86 | 1018.0 |